Tracking 30995 objects as of 5-Jul-2025
HD Live streaming from Space Station
objects crossing your sky now

THORAD AGENA D DEB

Track THORAD AGENA D DEB now!
10-day predictions


NORAD ID: 19422
Int'l Code: 1970-025QA
Perigee: 1,010.6 km
Apogee: 1,028.5 km
Inclination: 100.1 °
Period: 105.4 minutes
Semi major axis: 7390 km
RCS: 0.0088 m2 (small)
Launch date: April 8, 1970
Source: United States (US)
Launch site: AIR FORCE WESTERN TEST RANGE (AFWTR)

Note: This is SATELLITE DEBRIS
Your satellite tracking list
OPS 9443 (DSCS 2-13)
Track 1 satellite(s)




NASA's NSSDC Master Catalog

Two Line Element Set (TLE):
1 19422U 70025QA  25186.07332240  .00000277  00000-0  39280-3 0  9996
2 19422 100.1203 233.1401 0012094  88.9060 300.6365 13.66433672999256
Source of the keplerian elements: AFSPC